Voltar ao catálogo

COSMOS 1818 COOLANT

LostLEO
NORAD 50780·DEBRIS·🇷🇺 Russia

Lançado Feb 1, 1987 de Baikonur Cosmodrome

Loading…

Próximas Passagens (próximas 24 horas)

TLE

ObsoletoSource: Space-Track

Época: Oct 22, 2022, 12:26 UTC

1 50780U 87011AV  22295.51841937  .00000526  00000-0  21982-3 0  9993
2 50780  65.0046 333.1067 0015160 261.9427  97.9939 14.34915730517691

Acompanhe COSMOS 1818 COOLANT em tempo real com AllMySat

Download on the App Store